Weather History for Key West NAF, FL

Change the Weather History Date:

Friday, October 12, 2012

  Actual Average Record
Temperature  
Mean Temperature 82 °F -  
Max Temperature 87 °F 85 °F 91 °F (1950)
Min Temperature 78 °F 76 °F 70 °F (1987)
Cooling Degree Days 18    
Growing Degree Days 32 (Base 50)    
Moisture  
Dew Point 67 °F    
Average Humidity 60    
Maximum Humidity 72    
Minimum Humidity 49    
Precipitation  
Precipitation 0.00 in - - ()
Sea Level Pressure  
Sea Level Pressure 30.07 in    
Wind  
Wind Speed 12 mph (NE)    
Max Wind Speed 16 mph    
Max Gust Speed 22 mph    
Visibility 10 miles    
Events      
Averages and records for this station are not official NWS values.
T = Trace of Precipitation, MM = Missing Value Source: NWS Daily Summary

Daily Weather History Graph

Daily Weather History Graph

Search for Another Location

Airport:

Trip Planner

Search our weather history database for the weather conditions in past years. The results will help you decide how hot, cold, wet, or windy it might be!

Date:

Astronomy

Oct. 12, 2012 Rise Set
Actual Time 7:23 AM EDT 7:02 PM EDT
Civil Twilight 7:00 AM EDT 7:25 PM EDT
Nautical Twilight 6:34 AM EDT 7:51 PM EDT
Astronomical Twilight 6:07 AM EDT 8:18 PM EDT
Moon 4:22 AM EDT (10/12) 4:57 PM EDT (10/12)
Length of Visible Light 12h 24m
Length of Day
11h 38m
Waning Crescent, 11% of the Moon is Illuminated
Oct 12
Waning Crescent
Oct 15
New
Oct 21
First Quarter
Oct 29
Full
Nov 6
Last Quarter

Hourly Weather History & Observations

Time (EDT) Temp. Heat Index Dew Point Humidity Pressure Visibility Wind Dir Wind Speed Gust Speed Precip Events Conditions
12:53 AM 80.1 °F 82.3 °F 66.9 °F 64% 30.06 in 10.0 mi NE 15.0 mph 20.7 mph N/A   Partly Cloudy
1:53 AM 80.1 °F 82.3 °F 66.9 °F 64% 30.06 in 10.0 mi NE 10.4 mph 17.3 mph N/A   Partly Cloudy
2:53 AM 80.1 °F 82.7 °F 68.0 °F 67% 30.04 in 10.0 mi NE 10.4 mph 18.4 mph N/A   Partly Cloudy
3:53 AM 79.0 °F - 69.1 °F 72% 30.04 in 10.0 mi NE 12.7 mph 19.6 mph N/A   Partly Cloudy
4:53 AM 79.0 °F - 68.0 °F 69% 30.04 in 10.0 mi NE 11.5 mph 19.6 mph N/A   Clear
5:53 AM 79.0 °F - 68.0 °F 69% 30.05 in 10.0 mi NE 8.1 mph - N/A   Partly Cloudy
6:05 AM 78.8 °F - 68.0 °F 69% 30.05 in 10.0 mi NE 11.5 mph - N/A   Partly Cloudy
6:53 AM 79.0 °F - 66.9 °F 66% 30.06 in 10.0 mi NE 10.4 mph 18.4 mph N/A   Partly Cloudy
7:53 AM 79.0 °F - 66.9 °F 66% 30.08 in 10.0 mi NNE 12.7 mph - N/A   Scattered Clouds
8:53 AM 81.0 °F 83.8 °F 68.0 °F 65% 30.09 in 10.0 mi NE 11.5 mph - N/A   Scattered Clouds
9:53 AM 82.9 °F 85.8 °F 68.0 °F 60% 30.11 in 10.0 mi NNE 13.8 mph 21.9 mph N/A   Scattered Clouds
10:53 AM 84.0 °F 87.0 °F 68.0 °F 58% 30.11 in 10.0 mi NE 15.0 mph 18.4 mph N/A   Scattered Clouds
11:53 AM 84.0 °F 87.0 °F 68.0 °F 58% 30.11 in 10.0 mi NE 15.0 mph 20.7 mph N/A   Scattered Clouds
12:53 PM 84.9 °F 88.8 °F 69.1 °F 59% 30.09 in 10.0 mi NE 10.4 mph 19.6 mph N/A   Scattered Clouds
1:53 PM 84.9 °F 87.6 °F 66.9 °F 55% 30.07 in 10.0 mi NE 15.0 mph 20.7 mph N/A   Scattered Clouds
2:53 PM 87.1 °F 89.2 °F 66.0 °F 49% 30.05 in 10.0 mi NNE 12.7 mph - N/A   Partly Cloudy
3:53 PM 86.0 °F 89.4 °F 68.0 °F 55% 30.04 in 10.0 mi NNE 12.7 mph - N/A   Scattered Clouds
4:53 PM 86.0 °F 88.8 °F 66.9 °F 53% 30.03 in 10.0 mi NNE 11.5 mph - N/A   Partly Cloudy
5:53 PM 84.9 °F 86.1 °F 64.0 °F 49% 30.04 in 10.0 mi NNE 11.5 mph - N/A   Partly Cloudy
6:53 PM 82.9 °F 85.0 °F 66.0 °F 56% 30.05 in 10.0 mi NE 11.5 mph 16.1 mph N/A   Partly Cloudy
7:53 PM 82.9 °F 84.0 °F 63.0 °F 51% 30.06 in 10.0 mi NE 9.2 mph 16.1 mph N/A   Clear
8:53 PM 82.0 °F 83.8 °F 64.9 °F 56% 30.07 in 10.0 mi NE 9.2 mph 18.4 mph N/A   Clear
9:53 PM 81.0 °F 82.5 °F 64.0 °F 56% 30.08 in 10.0 mi NE 11.5 mph 21.9 mph N/A   Clear
10:53 PM 81.0 °F 82.2 °F 63.0 °F 54% 30.09 in 10.0 mi NE 13.8 mph 21.9 mph N/A   Clear
11:53 PM 80.1 °F 81.9 °F 64.9 °F 60% 30.09 in 10.0 mi NNE 16.1 mph 20.7 mph N/A   Clear